sat.trackr.live / text

‹ back to catalog

STARLINK-33994

NORAD 63931 · 2025-098F

PAYLOAD ACTIVE UNKNOWN

§ Identity

Operator
Country
US
Launch date
2025-05-13
Launch site
AFWTR
Launch vehicle
Mass (kg)
RCS (m²)

Purposes: comms

External: N2YO · Heavens-Above · Gunter

§ Orbital elements

Epoch: 2026-09-20T18:36:15.457824Z

Period
94.14 min
Inclination
69.9996°
Eccentricity
0.0002594
Mean motion
15.29594938 rev/d
Perigee alt
475.2 km
Apogee alt
478.8 km
Semi-major
6,855.2 km
B*
4.4658e-4
RAAN
140.2180°
Arg perigee
266.4609°
Mean anomaly
93.6270°
Rev number
7,585

§ Raw data

STARLINK-339941 63931U 25098F   26263.77517891  .00012737  00000+0  44658-3 0  99992 63931  69.9996 140.2180 0002594 266.4609  93.6270 15.29594938 75858

JSON: /api/v1/satellites/63931 · /tle

For live sub-satellite position, see the globe view (requires WebGL).

§ Visibility from observer

Set your observer location to see the next 7 days of passes ≥ 10°. The values pass through the URL so the page stays shareable.

No JS? Fill the form by hand. The geolocation button needs JavaScript.